Regional Weather Roundup
Issued by NWS

Home | Current Version | Previous Version | Text Only | Print | Product List | Glossary Off
Versions: 1 2 3 4 5 6 7 8 9 10 11 12 13 14 15 16 17 18 19 20 21 22 23 24 25 26 27 28 29 30 31 32 33 34 35 36 37 38 39 40 41 42 43 44 45 46 47 48 49 50

000
ASUS43 KLSX 131510
RWRMO

WEATHER SUMMARY FOR MISSOURI
NATIONAL WEATHER SERVICE SPRINGFIELD MO
900 AM CST SAT FEB 13 2016

NOTE: "FAIR" INDICATES FEW OR NO CLOUDS BELOW 12,000 FEET WITH NO
       SIGNIFICANT WEATHER AND/OR OBSTRUCTIONS TO VISIBILITY.
       CURRENT SKY AND/OR WEATHER CONDITIONS ARE NOT AVAILABLE FOR
       CHILLICOTHE AND FARMINGTON.

MOZ001>031-035>038-043-044-053-054-131600-
...NORTHERN AND WESTERN MISSOURI...

CITY           SKY/WX    TMP DP  RH WIND       PRES   REMARKS
KANSAS CTY INT CLOUDY    16   3  56 E9        30.58F WCI   4
KANSAS C DTWN  CLOUDY    19   3  49 E8        30.61S WCI   9
LEE`S SUMMIT   CLOUDY    16   3  56 E9        30.59F WCI   4
ST JOSEPH      CLOUDY    15   2  56 E7        30.62S WCI   5
CHILLICOTHE      N/A     12   0  58 E7        30.66F WCI   1
KIRKSVILLE     CLOUDY     9  -3  58 NE5       30.65F WCI   1

$$
MOZ066>068-077>081-088>096-101>105-131600-
...SOUTHWEST MISSOURI...

CITY           SKY/WX    TMP DP  RH WIND       PRES   REMARKS
SPRINGFIELD    MOSUNNY   23   0  36 E9        30.53F WCI  13
JOPLIN         CLOUDY    25   4  40 NE13      30.55F WCI  14

$$
MOZ032>034-039>042-045>050-055>058-069>072-131600-
...CENTRAL MISSOURI...

CITY           SKY/WX    TMP DP  RH WIND       PRES   REMARKS
COLUMBIA       CLOUDY    13   2  61 NE6       30.64R WCI   4
JEFFERSON CITY CLOUDY    15   2  56 E7        30.67S WCI   5
ROLLA          CLOUDY    14   4  64 NE6       30.58S WCI   5
SEDALIA        CLOUDY    17   3  54 E7        30.63S WCI   8
WHITEMAN AFB   CLOUDY    16   2  54 E5        30.60F WCI   9
WARRENSBURG    CLOUDY    18   5  57 NE7       30.62S WCI   8
OSAGE BEACH    CLOUDY    18   1  49 NE7       30.61F WCI   8

$$
MOZ051-052-059>065-131600-
...EAST CENTRAL MISSOURI...

CITY           SKY/WX    TMP DP  RH WIND       PRES   REMARKS
ST LOUIS INTL  CLOUDY    15   0  51 N5        30.68R WCI   8
SPIRIT OF STL  CLOUDY    15   2  56 N6        30.68S WCI   6
ST CHARLES     CLOUDY    13   0  56 N5        30.69S WCI   5

$$
MOZ072>076-082>087-097>100-106>115-131600-
...SOUTH CENTRAL AND SOUTHEAST MISSOURI...

CITY           SKY/WX    TMP DP  RH WIND       PRES   REMARKS
CAPE GIRARDEAU CLOUDY    18   4  54 NE13      30.65S WCI   5
FARMINGTON     CLOUDY    14   3  61 N7        30.62S WCI   4
POPLAR BLUFF   CLOUDY    21   3  45 NE14      30.64R WCI   8
WEST PLAINS    CLOUDY    21  -2  36 NE9       30.57R WCI  11

$$



USA.gov is the U.S. government's official web portal to all federal, state and local government web resources and services.